Regional Weather Roundup
Issued by NWS

Home | Current Version | Previous Version | Graphics & Text | Print | Product List | Glossary On
Versions: 1 2 3 4 5 6 7 8 9 10 11 12 13 14 15 16 17 18 19 20 21 22 23 24 25 26 27
000
ASUS45 KBOU 061807
RWRCO

WEATHER ROUNDUP FOR COLORADO
NATIONAL WEATHER SERVICE DENVER/BOULDER CO
1100 AM MST TUE DEC 06 2016

NOTE: "FAIR" INDICATES FEW OR NO CLOUDS BELOW 12000 FEET WITH NO
SIGNIFICANT WEATHER AND/OR OBSTRUCTIONS TO VISIBILITY.

COZ001>005-013-030-031-061900-
...NORTHWEST COLORADO...

CITY           SKY/WX    TMP DP  RH WIND       PRES   REMARKS
CRAIG          CLOUDY    18  -2  41 E15       29.85F WCI   4
HAYDEN         FAIR      10  -6  48 E10       29.84F WCI  -3
MEEKER         FAIR      19   6  57 CALM      29.81F
MOUNT WERNER   NOT AVBL
STEAMBOAT SPGS CLOUDY     6  -6  57 CALM      29.84F
WALDEN           N/A      3  -9  55 CALM      29.80F
$$

COZ006>008-011-061900-
...WEST CENTRAL VALLEYS...

CITY           SKY/WX    TMP DP  RH WIND       PRES   REMARKS
GRAND JUNCTION CLOUDY    29   7  39 SE6       29.84F WCI  23
MONTROSE       FAIR      28   8  43 VRB6      29.86F WCI  22
EAGLE          PTSUNNY   19   7  58 CALM      29.86F
RIFLE          CLOUDY    25   7  46 E3        29.86F
DELTA          NOT AVBL
NUCLA          NOT AVBL
$$

COZ017>023-064>068-061900-
...SOUTHWEST COLORADO...

CITY           SKY/WX    TMP DP  RH WIND       PRES   REMARKS
DURANGO        PTSUNNY   33  15  47 E8        29.86F WCI  26
CORTEZ         FAIR      39  21  48 W6        29.84F
PAGOSA SPRINGS NOT AVBL
TELLURIDE      CLOUDY    28  13  52 CALM      29.83F
WOLF CREEK PAS LGT SNOW  10  10 100 SW13G21   29.85F WCI  -5
$$

COZ009-010-012-014-032>034-037-058>063-061900-
...CENTRAL COLORADO...

CITY           SKY/WX    TMP DP  RH WIND       PRES   REMARKS
ASPEN          CLOUDY    19   8  62 W3        29.77F
BUENA VISTA    FAIR      31   1  26 W6        29.74F WCI  26
COPPER MTN     NOT AVBL
BERTHOUD PASS  CLOUDY     3  -9  55 W29G44    29.64F HAZE    WCI -21
COTTONWOOD PAS CLOUDY    30   0  27 W12G30    29.73F WCI  21
GUNNISON       FLURRIES  17   7  64 W6        29.84F WCI   9
KREMMLING      FAIR      18   7  62 CALM      29.86F
LEADVILLE      CLOUDY    18   1  47 N10       29.72F WCI   6
MONARCH PASS     N/A     12   9  85 SW25G38   29.84F WCI  -8
SALIDA         PTSUNNY   24   1  36 SE16G24   29.86F WCI  11
SUNLIGHT       CLOUDY    12   5  73 SW18G26   29.77F WCI  -5
WILKERSON PASS FAIR      19   0  42 SW15G24   29.74F WCI   5
$$

COZ069>075-061900-
...SAN LUIS VALLEY/SANGRE DE CRISTO MOUNTAINS...

CITY           SKY/WX    TMP DP  RH WIND       PRES   REMARKS
ALAMOSA        FAIR      36  13  38 SW23      29.81F
LA VETA PASS   CLOUDY    27   3  36 NE21G33   29.81F WCI  13
SAGUACHE       FAIR      30   9  40 S5        29.81F WCI  25
$$

COZ035-036-038>040-061900-
...NORTHERN COLORADO FRONT RANGE...

CITY           SKY/WX    TMP DP  RH WIND       PRES   REMARKS
DENVER INTL AP FAIR      27   4  37 SE17      29.90F WCI  14
DMNS CITY PARK   N/A     26   1  33 W2        29.90F
AURORA         MOSUNNY   27   3  36 SE8       29.88F WCI  19
FRONT RANGE AP MOSUNNY   27   3  36 SE20      29.91F WCI  13
ERIE MUNI ARPT FAIR      27   0  31 CALM      29.92F
BOULDER MUN AP FAIR      27   1  33 E3        29.92F
CENTENNIAL     FAIR      25   3  38 SE10      29.87F WCI  15
BROOMFIELD     PTSUNNY   25   0  33 CALM      29.91S
FORT COLLINS   FAIR      21   1  42 N5        29.95F WCI  15
LONGMONT       FAIR      31   2  28 E3        29.95F
$$

COZ041-046-047-076>085-087-088-061900-
...PIKES PEAK/PALMER DIVIDE AND SOUTHERN FOOTHILLS...

CITY           SKY/WX    TMP DP  RH WIND       PRES   REMARKS
COLO. SPRINGS  FAIR      21   0  39 S21G31    29.91F WCI   5
A. F. ACADEMY  FAIR      20  -1  39 SE18G24   29.86F WCI   5
SCHRIEVER AFB  NOT AVBL
ELLICOTT       FAIR     N/A N/A N/A S13       29.91
FALCON         FAIR      19  -1  40 S18G24    29.89F WCI   4
FORT CARSON    FAIR      22   0  37 SE22      29.90F WCI   7
LIMON          FAIR      23  -3  32 SE7       29.96F WCI  15
MONUMENT HILL  FAIR      19   1  45 S18       29.85F WCI   4
TRINIDAD       FAIR      31   2  29 NE12      29.92F WCI  22
$$

COZ042>045-048>051-090-091-061900-
...NORTHEAST COLORADO...

CITY           SKY/WX    TMP DP  RH WIND       PRES   REMARKS
GREELEY ARPT   FAIR      27   0  31 SE7       29.97F WCI  19
AKRON          FAIR      25  -5  26 W10       29.97F WCI  15
BURLINGTON     FAIR      27   0  31 W5        30.03F WCI  22
WRAY           NOT AVBL
STERLING       FAIR      28   3  34 S10       29.99F WCI  19
HOLYOKE        FAIR      34   3  27 NW9       30.01F WCI  26
FORT MORGAN    FAIR      27   0  32 S8        29.99F WCI  18
$$

COZ086-089-092>099-061900-
...SOUTHEAST COLORADO...

CITY           SKY/WX    TMP DP  RH WIND       PRES   REMARKS
PUEBLO         FAIR      27   4  37 SE15      29.99F WCI  15
LA JUNTA       FAIR      28   7  41 MISG      30.04F
LAMAR          FAIR      29   5  36 CALM      30.06F
SPRINGFIELD      N/A     26   1  34 S6        30.04F WCI  19
$$




USA.gov is the U.S. government's official web portal to all federal, state and local government web resources and services.